GEFSMW_500_meanwind_096.txt.gz
Wind_Speed
26 27 27 28 28 28 29 29 28 29 29 29 29 30 30 31 32 33 33 32 32 32 30 30 30 30 30 30 28 26 27 27 27 26 26 26 26 25 24 24 25 24 24
24 26 27 27 28 28 28 28 28 28 29 29 30 30 30 31 32 33 32 31 31 31 29 29 30 31 30 29 29 28 28 26 26 26 27 27 27 26 26 26 26 26 27
25 26 27 27 27 27 27 28 27 27 28 29 29 29 30 31 31 32 32 32 31 31 31 27 27 29 28 28 27 27 28 28 27 26 26 25 25 27 26 26 26 27 28
26 27 27 27 27 26 27 27 27 27 27 27 28 28 29 30 30 30 29 30 31 31 30 29 27 27 28 28 27 26 28 28 27 28 27 26 26 27 26 27 27 28 29
26 26 27 27 27 27 27 27 27 27 27 27 27 27 27 28 29 29 29 28 28 28 28 26 26 27 27 29 28 27 28 29 29 29 28 28 27 27 27 27 28 29 30
25 25 26 27 27 27 27 27 27 27 27 27 26 26 25 25 26 28 29 29 27 26 27 27 27 27 27 26 27 26 27 28 28 28 27 27 27 27 28 29 30 30 30
24 24 25 26 26 26 26 27 27 27 27 26 26 25 24 24 24 25 27 27 25 25 26 25 25 26 26 25 25 26 26 27 27 27 26 27 27 28 29 29 30 31 31
22 23 24 26 25 25 25 25 25 24 25 25 25 24 23 23 23 24 25 25 24 23 23 22 22 23 24 24 24 25 25 25 26 26 26 27 28 29 29 29 29 31 31
21 22 23 24 24 25 25 23 23 23 22 24 25 24 23 22 22 23 23 23 23 22 21 21 22 22 22 23 23 24 24 25 25 26 28 29 29 29 30 30 29 30 30
20 21 22 22 23 24 23 23 22 22 22 23 24 24 22 21 22 22 23 23 23 22 22 22 22 22 23 23 23 23 24 25 26 26 27 28 29 28 29 28 28 28 28
20 21 21 21 22 21 22 22 22 22 22 22 22 23 22 21 21 22 23 22 21 22 23 23 22 22 23 23 24 24 24 24 25 25 25 26 27 27 26 26 25 25 26
20 21 22 22 22 22 22 22 22 22 21 21 21 20 21 21 20 20 22 22 22 23 23 24 24 23 23 23 24 24 24 24 24 24 24 24 25 24 24 25 25 25 26
22 23 23 23 23 23 23 22 22 22 22 22 22 21 21 20 20 21 21 21 22 23 23 24 24 24 24 24 23 23 24 24 24 24 23 23 23 23 24 25 25 26 27
24 24 24 24 23 23 23 23 22 22 21 21 21 21 21 21 20 21 22 21 22 23 23 23 23 23 23 23 23 23 23 23 23 23 22 23 23 24 25 26 26 27 28
24 25 24 24 23 23 22 21 21 20 20 20 20 21 21 21 21 22 22 21 22 22 23 22 22 22 22 22 22 22 22 23 23 23 23 23 24 25 26 27 28 28 29
25 24 23 23 21 21 20 19 19 19 19 19 19 20 21 21 21 22 21 20 21 21 22 23 23 22 22 22 21 21 21 22 23 23 23 24 25 26 27 28 28 29 29
24 23 23 21 19 18 18 17 17 17 18 18 19 19 20 20 21 21 21 21 21 20 21 21 21 22 21 21 21 21 21 21 22 23 24 25 26 26 27 28 28 29 29
23 22 21 20 18 17 17 16 16 16 16 17 18 19 19 20 19 20 21 20 19 19 19 19 20 20 20 20 21 21 21 22 22 22 23 24 25 26 27 28 28 28 28
21 20 19 18 16 15 14 15 15 15 16 16 17 18 18 18 19 18 18 19 18 18 17 17 19 19 20 20 20 21 21 21 22 22 23 24 25 26 27 27 27 27 26
19 18 17 16 14 13 11 11 12 13 13 14 15 16 16 17 17 16 16 17 16 16 17 18 18 18 19 20 20 20 19 20 21 22 23 24 25 25 26 25 25 24 24
16 15 14 13 11 10 9 9 9 11 12 12 12 12 13 14 15 15 14 14 15 15 16 16 16 16 17 18 18 19 19 20 20 21 22 23 24 24 23 22 21 21 21
13 12 12 10 9 8 8 8 8 9 10 11 11 11 11 12 13 12 12 12 13 14 14 14 14 14 14 15 16 17 18 19 19 19 19 20 20 20 19 19 19 19 20
10 8 7 7 7 6 6 7 7 7 7 9 10 10 10 10 10 10 11 11 11 11 11 12 13 13 13 14 15 15 16 17 17 17 17 17 17 17 17 18 18 18 18
7 5 5 4 5 5 5 5 5 6 6 7 8 9 9 9 10 10 10 10 9 9 9 9 10 10 11 11 11 12 13 13 14 14 14 14 15 15 15 15 15 15 15
4 2 1 0 2 3 4 4 4 5 6 6 7 7 8 8 8 7 7 7 7 7 7 7 8 8 9 9 10 10 11 11 11 12 12 12 12 12 12 13 13 13 13
3 2 2 2 3 3 3 4 4 4 5 5 5 6 6 6 6 5 5 4 4 4 4 5 5 6 7 7 8 8 9 9 9 9 9 10 10 10 11 11 12 12 11

GEFSMW_500_meanwind_102.txt.gz
Wind_Speed
25 25 25 26 26 27 27 28 28 28 28 28 28 28 28 30 31 32 32 33 32 33 32 32 31 31 30 29 29 28 29 29 28 29 29 29 29 28 27 26 27 27 27
23 24 25 25 26 26 27 28 28 28 27 27 28 29 29 30 31 32 32 32 33 33 33 33 32 32 32 31 30 29 29 29 28 29 30 30 29 29 28 28 29 28 28
22 23 25 26 27 27 27 28 28 29 28 27 28 28 29 30 30 31 32 32 33 33 32 32 32 32 31 31 30 29 30 31 30 30 30 30 29 29 29 29 30 29 29
23 24 24 25 26 27 27 27 27 27 27 27 28 28 29 30 30 31 32 32 33 33 33 33 32 32 31 31 31 30 30 31 31 31 31 30 30 30 30 29 30 30 30
22 22 23 24 25 26 27 27 28 28 28 28 29 29 29 30 31 31 32 33 33 33 33 33 34 33 32 31 32 32 31 30 31 31 31 31 30 30 30 30 30 30 30
21 22 22 23 24 25 26 27 28 28 29 30 30 30 30 30 30 31 31 31 32 32 33 32 32 32 30 29 30 30 30 31 30 30 30 30 31 31 32 32 32 31 31
21 22 23 23 24 25 26 26 27 28 29 30 30 31 32 32 31 31 31 30 30 30 30 31 31 31 31 31 30 29 29 30 30 30 30 30 31 32 32 33 32 32 32
21 22 22 23 24 25 25 25 26 27 28 29 30 31 31 31 31 31 30 30 30 30 29 29 29 29 30 30 30 30 30 30 30 31 30 30 31 32 32 32 33 32 33
22 22 22 23 23 24 25 26 27 28 29 29 29 30 30 30 31 30 30 30 29 29 30 29 28 28 27 28 29 29 28 28 30 30 30 30 31 32 31 33 33 33 32
22 23 23 24 25 25 26 27 27 27 28 28 29 29 29 29 29 28 29 29 29 29 28 28 28 28 28 26 27 28 28 28 29 30 30 31 31 30 30 31 32 32 31
23 23 24 25 26 26 26 26 26 26 25 25 26 27 28 27 27 26 27 28 27 27 27 27 28 27 26 26 26 26 27 29 29 29 30 31 30 29 29 30 30 31 32
24 25 25 26 25 25 25 25 25 25 25 24 25 25 26 26 25 25 25 26 26 25 25 26 26 26 25 25 25 26 25 26 27 28 29 29 29 28 29 29 29 29 30
25 25 26 26 25 25 25 25 25 25 24 24 24 25 25 24 24 24 23 24 24 24 24 25 25 25 25 25 25 25 25 25 26 26 26 26 26 27 27 28 27 27 28
26 26 27 27 27 26 26 26 25 25 24 24 24 24 23 23 22 22 22 23 23 23 23 24 25 25 24 24 24 24 24 25 25 25 26 26 25 26 26 26 26 27 27
27 27 27 27 26 26 26 25 25 24 24 23 23 22 22 21 21 21 21 21 21 20 21 23 23 24 24 23 23 23 23 23 24 25 25 24 24 24 25 25 26 27 27
27 27 27 27 26 26 25 25 24 23 22 22 22 21 20 19 20 20 20 20 20 20 20 20 21 21 22 22 22 21 22 22 21 21 22 22 22 23 24 25 26 28 29
27 27 27 26 25 24 23 22 21 21 20 20 20 20 19 19 19 20 21 20 20 20 20 19 20 21 20 19 19 18 19 19 19 20 21 22 22 23 24 25 27 28 28
26 26 25 24 23 22 20 19 18 18 17 17 17 18 18 17 17 17 18 18 18 18 18 19 19 19 18 18 19 18 18 18 19 20 20 21 21 22 24 25 25 26 27
25 24 23 21 20 19 18 16 15 15 15 14 15 15 15 15 15 16 16 18 18 18 19 19 18 18 17 17 17 17 17 18 19 20 20 20 21 22 22 23 24 25 25
23 21 20 18 17 15 14 13 12 11 12 12 13 14 13 13 14 15 15 15 15 16 16 16 16 16 16 15 16 16 17 17 18 18 19 19 20 21 22 23 23 23 23
19 18 16 15 13 12 10 9 8 8 8 9 10 11 12 12 13 13 14 13 13 12 13 12 12 13 14 15 15 15 16 16 17 18 18 18 19 20 21 21 21 21 22
16 14 12 10 9 8 7 6 5 6 6 7 8 10 10 11 11 11 12 12 11 10 10 11 11 11 12 12 13 13 14 15 15 16 16 17 17 18 18 19 18 18 18
12 10 8 7 6 5 5 4 3 4 5 6 7 9 9 9 8 9 9 9 9 9 8 8 8 8 8 8 9 10 11 11 12 12 13 14 14 15 15 15 15 15 14
8 6 5 3 2 2 3 3 3 3 5 6 7 8 8 8 8 8 7 7 7 7 7 6 5 5 6 6 7 8 8 9 10 11 12 12 12 12 12 12 12 12 12
5 3 2 2 2 2 3 3 4 5 5 6 8 8 8 8 7 7 7 6 5 5 5 5 4 4 5 5 6 6 7 8 8 9 9 9 9 9 9 9 9 9 10
4 3 3 3 3 3 4 5 6 6 7 8 8 8 9 8 8 7 7 6 5 4 3 3 3 2 2 3 3 4 4 5 5 6 6 6 6 6 7 7 8 8 9

GEFSMW_500_meanwind_108.txt.gz
Wind_Speed
20 22 23 22 23 24 24 25 25 26 26 26 26 26 27 28 28 28 29 30 30 31 30 30 30 29 29 29 30 31 31 30 29 30 30 30 29 29 28 27 27 27 27
21 22 23 23 24 24 25 26 26 27 27 27 27 27 27 28 29 29 30 30 31 31 31 31 30 30 31 31 31 31 31 31 31 31 30 30 29 29 29 29 28 28 28
22 22 23 23 24 25 26 27 27 28 28 28 28 28 29 29 30 30 31 31 31 31 31 31 31 31 32 31 31 30 31 31 31 31 30 30 29 29 30 30 29 29 29
22 22 23 24 25 26 27 27 28 28 29 30 31 31 31 31 32 32 31 31 31 31 31 31 31 31 32 32 32 33 32 32 32 32 31 31 30 30 31 31 30 30 30
21 22 23 24 25 26 26 27 27 28 28 29 30 31 31 31 32 32 32 32 32 31 31 32 32 32 33 33 34 34 33 33 33 32 32 32 32 32 31 30 30 30 31
21 22 23 24 25 26 27 27 27 27 28 28 29 30 30 31 32 32 32 32 31 31 31 31 31 32 32 33 33 33 33 34 34 33 33 33 32 32 31 31 31 31 30
22 23 24 25 26 27 27 27 28 28 29 29 30 30 30 31 32 32 32 31 31 31 30 31 31 31 32 32 32 32 32 33 33 33 33 33 32 32 31 31 30 31 31
23 24 24 25 26 26 27 27 28 28 29 29 30 30 31 31 31 31 31 31 31 31 31 31 31 32 32 31 31 32 32 32 32 32 32 31 30 30 31 32 31 31 32
23 23 24 25 26 26 26 27 27 28 28 28 29 30 31 31 31 31 30 30 31 31 31 31 31 31 31 31 31 31 31 31 31 32 31 31 31 31 31 31 32 32 32
23 24 25 26 27 27 27 28 28 28 28 29 30 30 30 30 30 30 30 30 30 30 30 30 30 30 30 30 30 29 30 30 30 30 29 29 30 30 30 31 31 32 32
25 26 27 28 28 29 29 29 29 29 29 29 29 29 29 29 29 29 29 29 29 29 29 29 28 28 27 27 27 28 27 27 27 28 27 26 27 28 29 30 30 30 31
26 27 28 28 29 29 29 30 30 29 30 29 29 29 28 28 29 29 29 28 28 28 28 27 26 25 25 24 24 24 25 26 25 25 26 26 26 27 27 27 27 29 29
27 28 28 29 29 30 30 30 30 30 30 29 28 28 28 28 27 27 27 27 26 26 26 25 25 24 23 23 23 23 23 23 23 23 24 24 24 24 24 25 24 25 26
28 29 30 30 31 31 31 30 30 30 30 29 28 27 28 27 26 25 25 25 24 23 23 23 23 22 21 21 21 21 21 20 21 21 21 20 21 21 22 23 23 23 23
29 30 30 31 31 31 31 30 29 28 28 28 27 27 27 25 25 24 23 22 22 22 21 20 20 20 19 19 19 18 19 19 19 20 19 19 19 20 21 22 22 22 22
29 30 30 30 30 30 29 28 27 26 26 26 26 26 25 24 23 22 22 21 20 20 19 18 17 16 16 16 17 17 18 18 18 17 17 18 19 19 19 19 19 20 20
30 30 30 29 29 28 27 26 25 24 24 24 24 23 23 22 21 21 20 19 18 18 18 17 16 15 14 14 15 15 16 16 16 16 16 16 15 16 16 17 18 18 18
29 29 29 28 27 25 24 23 22 22 21 21 21 20 19 18 18 17 18 17 17 16 15 14 14 13 12 13 13 14 14 14 14 14 14 14 14 14 14 14 15 16 17
28 28 27 25 24 23 22 20 19 18 18 17 16 15 15 15 14 13 14 14 14 15 14 13 13 12 11 11 12 12 11 11 11 12 12 13 13 13 13 14 15 16 17
26 25 24 22 21 19 19 17 16 15 14 13 12 12 12 12 12 11 10 11 12 12 13 12 12 11 10 9 10 10 10 10 10 11 12 11 11 12 12 13 14 15 16
23 22 20 19 17 16 15 14 13 12 11 9 9 9 9 9 10 10 9 9 10 11 10 10 10 9 9 8 8 9 9 9 9 10 10 10 10 11 11 11 12 13 14
20 18 16 15 14 13 11 10 9 8 8 7 7 8 8 7 8 9 8 8 8 8 8 8 8 8 8 8 8 9 9 9 9 9 9 8 9 10 10 10 11 11 12
17 15 13 12 10 9 8 7 6 5 5 5 5 6 6 7 7 7 8 7 6 6 6 6 6 6 6 6 6 7 7 7 7 7 7 7 8 9 9 9 10 10 10
13 12 10 8 7 6 5 4 3 1 2 4 5 6 6 7 7 6 5 5 6 6 5 4 4 3 3 4 4 4 5 5 5 5 5 6 6 7 7 7 7 8 8
10 9 7 5 4 4 3 2 0 2 5 5 6 7 6 6 6 5 5 5 5 4 4 3 2 2 2 2 1 1 2 2 3 3 4 4 4 4 5 6 6 6 6
8 6 4 3 2 2 2 2 4 5 7 7 7 7 7 6 6 6 6 6 5 4 4 3 3 3 2 2 2 2 1 1 2 2 2 3 3 4 4 5 5 5 6

GEFSMW_500_meanwind_114.txt.gz
Wind_Speed
16 15 16 15 15 14 14 12 13 14 15 16 16 18 21 22 23 23 24 24 24 24 24 23 23 24 25 26 26 26 25 25 25 26 25 24 24 24 24 25 25 24 24
15 14 14 14 15 15 14 13 14 15 16 18 19 21 22 23 24 24 24 24 24 24 24 24 24 25 26 27 27 27 27 27 27 27 27 27 26 25 26 25 26 26 25
16 15 14 15 15 16 15 16 16 17 18 19 21 22 22 23 25 24 25 25 25 25 25 25 26 26 27 28 28 28 28 28 28 29 29 29 28 28 27 27 27 26 26
15 15 15 15 16 17 17 18 18 19 19 20 21 23 23 24 25 25 25 25 26 26 26 26 27 27 28 29 29 29 29 29 29 30 30 30 30 29 28 29 29 28 28
15 16 16 16 17 18 18 19 19 20 21 22 23 24 24 25 25 25 25 26 27 27 27 27 28 28 29 29 30 30 30 29 29 30 31 31 31 30 29 29 28 28 28
16 16 16 17 17 18 19 20 21 21 22 23 24 25 25 26 26 26 26 26 27 27 28 28 28 28 29 29 29 29 30 30 30 30 30 30 30 30 29 29 29 28 28
17 17 17 18 19 19 20 21 22 23 24 24 25 25 26 26 26 27 27 27 27 28 28 28 28 28 29 29 29 29 30 29 29 29 29 29 30 30 29 29 28 28 28
17 17 18 19 20 21 21 22 23 24 25 25 25 26 26 27 27 27 27 27 27 27 28 28 28 28 28 28 29 29 29 29 29 28 28 28 28 29 29 29 28 29 28
17 17 19 20 20 22 23 24 25 26 26 27 27 27 27 27 27 27 27 27 27 27 27 27 27 27 28 28 27 28 28 28 27 28 28 28 28 28 28 28 28 28 28
16 18 20 21 22 23 24 26 27 27 28 28 28 28 28 28 28 28 28 28 27 27 27 27 27 27 27 27 26 27 27 27 26 26 26 26 27 27 27 27 27 28 27
18 19 21 22 23 24 25 27 28 28 28 28 29 28 28 28 28 28 28 28 27 27 27 27 27 26 25 26 26 25 25 25 25 25 25 25 25 25 25 26 27 26 27
20 22 23 24 25 26 27 28 28 29 29 30 30 30 29 29 29 28 28 27 26 26 26 26 25 25 25 25 25 24 23 23 23 22 22 22 23 23 24 24 24 25 26
22 23 25 25 26 27 28 29 29 29 29 30 30 30 29 29 29 28 27 27 26 26 25 25 24 23 24 23 23 22 21 21 20 20 20 20 20 21 21 22 23 24 24
24 25 25 26 27 28 28 29 29 29 29 29 28 28 28 27 27 27 26 26 25 25 24 23 22 21 21 21 21 20 19 18 18 18 17 17 18 19 19 19 19 20 20
25 26 26 27 27 28 28 28 28 28 28 28 27 26 26 26 25 25 24 23 23 22 21 20 19 19 19 19 18 17 16 16 15 15 15 15 15 15 15 14 15 15 16
27 27 27 27 27 27 28 28 27 27 27 26 25 25 25 24 23 23 23 22 21 20 19 18 18 17 16 16 15 15 15 14 14 14 14 13 13 13 12 12 12 13 13
27 27 27 27 27 27 27 26 25 25 24 24 23 23 22 22 22 21 21 20 19 18 17 16 15 15 14 13 13 12 12 12 12 12 11 11 12 12 11 11 12 12 12
27 27 27 27 26 26 25 24 23 23 22 21 20 20 19 18 18 18 17 16 16 16 15 15 14 13 11 11 10 10 11 10 9 9 9 9 9 9 10 10 11 11 11
26 26 26 25 24 23 23 22 21 20 19 18 17 16 15 14 13 12 12 12 12 12 12 12 11 10 10 9 9 9 8 8 7 7 7 6 7 7 9 9 9 9 10
25 24 24 22 22 21 20 19 18 17 16 15 14 13 11 10 8 8 8 8 8 8 9 10 10 10 9 9 8 8 7 6 6 6 7 6 7 7 7 7 7 8 8
22 22 21 20 19 18 17 16 15 14 13 12 10 9 7 5 5 5 5 6 6 7 8 8 9 9 8 8 7 7 7 6 6 5 5 5 5 5 5 6 6 6 7
20 20 18 17 16 15 13 12 10 10 9 8 6 5 4 3 3 3 4 5 6 7 7 7 7 7 7 7 7 7 7 6 5 4 4 4 4 4 4 4 4 4 4
17 16 13 12 12 11 9 7 6 6 5 4 3 3 3 3 4 4 4 5 6 7 7 7 6 5 5 6 6 5 5 5 4 3 3 3 3 3 3 2 1 1 1
14 12 10 10 9 8 6 4 4 3 1 0 2 3 4 5 5 5 6 6 6 6 6 5 5 5 6 5 5 5 4 4 3 3 3 3 4 3 3 2 2 1 1
11 10 8 8 6 5 4 3 2 1 2 3 4 5 6 6 6 6 6 6 6 6 6 6 6 7 7 7 6 6 5 5 5 5 5 5 5 5 5 4 4 4 4
9 8 8 6 5 4 4 4 4 4 5 6 7 7 7 7 7 8 8 7 7 7 7 7 8 8 8 8 7 6 6 7 7 8 8 8 7 7 7 7 7 7 7